Regional Weather Roundup
Issued by NWS

Home | Current Version | Previous Version | Graphics & Text | Print | Product List | Glossary On
Versions: 1 2 3 4 5 6 7 8 9 10 11 12 13 14 15 16 17 18 19 20 21 22 23 24 25 26 27 28 29 30 31 32 33 34 35 36 37 38 39 40 41 42 43 44 45 46 47 48 49 50
000
ASUS45 KBOU 162007
RWRCO

WEATHER ROUNDUP FOR COLORADO
NATIONAL WEATHER SERVICE DENVER/BOULDER CO
100 PM MST TUE DEC 16 2014

NOTE: "FAIR" INDICATES FEW OR NO CLOUDS BELOW 12000 FEET WITH NO
SIGNIFICANT WEATHER AND/OR OBSTRUCTIONS TO VISIBILITY.

COZ001>005-013-030-031-162100-
...NORTHWEST COLORADO...

CITY           SKY/WX    TMP DP  RH WIND       PRES   REMARKS
CRAIG          CLOUDY    27  22  81 NE13      30.07F WCI  16
HAYDEN         CLOUDY    25  19  80 E12       30.07F WCI  14
MEEKER         CLOUDY    27  22  81 CALM      30.06F
MOUNT WERNER   NOT AVBL
STEAMBOAT SPGS CLOUDY    23  20  90 CALM      30.08F
WALDEN         CLOUDY    19  16  86 N3        30.08F VSB 3/4
$$

COZ006>008-011-162100-
...WEST CENTRAL VALLEYS...

CITY           SKY/WX    TMP DP  RH WIND       PRES   REMARKS
GRAND JUNCTION CLOUDY    38  25  59 CALM      30.07F
MONTROSE       PTSUNNY   41  26  55 NW8       30.08F
EAGLE          PTSUNNY   21  18  86 CALM      30.17F
RIFLE          CLOUDY    32  23  69 SE3       30.10F
DELTA          PTSUNNY   44  26  50 NE3       30.09F
NUCLA          PTSUNNY   37  27  65 NW5       30.11F
$$

COZ017>023-064>068-162100-
...SOUTHWEST COLORADO...

CITY           SKY/WX    TMP DP  RH WIND       PRES   REMARKS
DURANGO        PTSUNNY   41  21  44 SE5       30.13F
CORTEZ         MOSUNNY   48  22  35 S9        30.08F
PAGOSA SPRINGS CLOUDY    39  26  59 CALM      30.15F
TELLURIDE      NOT AVBL
WOLF CREEK PAS CLOUDY    21  14  73 MISG      30.17F
$$

COZ009-010-012-014-032>034-037-058>063-162100-
...CENTRAL COLORADO...

CITY           SKY/WX    TMP DP  RH WIND       PRES   REMARKS
ASPEN          CLOUDY    25  20  81 CALM      30.07F
BUENA VISTA    CLOUDY    40  10  28 S3        30.07F
COPPER MTN     PTSUNNY   32  21  64 S12G20    30.11F WCI  23
BERTHOUD PASS  CLOUDY    23  19  86 MISG      30.12F
COTTONWOOD PAS CLOUDY    34  10  37 S7        30.08F WCI  28
GUNNISON       MOSUNNY   27  14  59 W6        30.15F WCI  20
KREMMLING      CLOUDY    18  10  73 CALM      30.16F
LEADVILLE      CLOUDY    27  17  66 S13       30.06F WCI  16
MONARCH PASS   CLOUDY    27  19  74 SW24G31   30.23F WCI  12
SALIDA         MOSUNNY   44  13  28 S15G22    30.13F
SUNLIGHT       LGT SNOW  32  30  93 CALM      30.10F
WILKERSON PASS MOSUNNY   32  18  55 S7        30.14F WCI  26
$$

COZ069>075-162100-
...SAN LUIS VALLEY/SANGRE DE CRISTO MOUNTAINS...

CITY           SKY/WX    TMP DP  RH WIND       PRES   REMARKS
ALAMOSA        MOSUNNY   36  14  40 CALM      30.13F
LA VETA PASS   SUNNY     34  12  40 S12G23    30.12F WCI  25
SAGUACHE       MOSUNNY   36  10  35 E6        30.13F
$$

COZ035-036-038>040-162100-
...NORTHERN COLORADO FRONT RANGE...

CITY           SKY/WX    TMP DP  RH WIND       PRES   REMARKS
DENVER INTL AP CLOUDY    31  21  66 NW7       30.04F WCI  24
DMNS CITY PARK   N/A     35  20  56 N7        30.04F WCI  29
AURORA         PTSUNNY   32  21  64 N6        30.04F WCI  26
FRONT RANGE AP NOT AVBL
ERIE MUNI ARPT   N/A     30  21  69 CALM      30.06F
BOULDER MUN AP CLOUDY    32  21  64 CALM      30.06S
CENTENNIAL     CLOUDY    32  20  61 N6        30.02F WCI  26
BROOMFIELD     CLOUDY    30  21  69 CALM      30.06F
FORT COLLINS   CLOUDY    34  21  60 NE7       30.06F WCI  28
LONGMONT       CLOUDY    34  22  62 E3        30.09S
$$

COZ041-046-047-076>085-087-088-162100-
...PIKES PEAK/PALMER DIVIDE AND SOUTHERN FOOTHILLS...

CITY           SKY/WX    TMP DP  RH WIND       PRES   REMARKS
COLO. SPRINGS  PTSUNNY   33  16  49 SE5       30.07F WCI  29
A. F. ACADEMY  MOSUNNY   33  17  50 VRB2      30.05F
ELLICOTT       NOT AVBL
FALCON         MOSUNNY   32  16  52 SW6       30.07F WCI  26
FORT CARSON    MOSUNNY   31  18  57 SE6       30.07F WCI  25
LIMON          CLOUDY    33  16  49 S15       30.08F WCI  23
MONUMENT HILL  CLOUDY    36  25  64 S13       30.01F
TRINIDAD       MOSUNNY   45  24  43 E6        30.05F
$$

COZ042>045-048>051-090-091-162100-
...NORTHEAST COLORADO...

CITY           SKY/WX    TMP DP  RH WIND       PRES   REMARKS
GREELEY ARPT   CLOUDY    28  18  64 S3        30.08S
AKRON          PTSUNNY   32  22  66 S13       30.10F WCI  22
BURLINGTON     CLOUDY    33  19  56 S12       30.15F WCI  24
WRAY           MOSUNNY   24  20  83 E5        30.19F WCI  18
STERLING       PTSUNNY   25  19  80 NE3       30.13F
HOLYOKE        NOT AVBL
FORT MORGAN    PTSUNNY   22  15  74 NE5       30.09F WCI  16
$$

COZ086-089-092>099-162100-
...SOUTHEAST COLORADO...

CITY           SKY/WX    TMP DP  RH WIND       PRES   REMARKS
PUEBLO         NOT AVBL
LA JUNTA       CLOUDY    31  25  78 E5        30.12F WCI  26
LAMAR          CLOUDY    38  24  57 SE10      30.14F
SPRINGFIELD      N/A     43  20  39 S21       30.12F
$$



USA.gov is the U.S. government's official web portal to all federal, state and local government web resources and services.